Location: Caltech
(34.1382°N, 118.1253°W)
Time: 04:14:25
(UTC-07:00)

Oscar 19 - Visible Passes

Search period start: 24 May 2015 00:00
Search period end: 03 June 2015 00:00
Orbit: 775 x 790 km, 98.5° (Epoch: 23 May)

Date Brightness Start Highest point End Pass type
(mag) Time Alt. Az. Time Alt. Az. Time Alt. Az.
24 May 12.9 01:17:58 10° NE 01:19:48 15° ENE 01:19:48 15° ENE visible
24 May 11.2 02:55:56 10° N 03:00:22 44° WNW 03:00:22 44° WNW visible
25 May 11.0 02:24:02 10° NNE 02:28:19 62° NNE 02:28:19 62° NNE visible
26 May 11.9 01:52:38 10° NNE 01:56:16 35° ENE 01:56:16 35° ENE visible
26 May 12.2 03:32:46 10° NNW 03:36:33 20° WNW 03:36:50 20° WNW visible
27 May 12.8 01:21:58 10° NE 01:24:12 17° ENE 01:24:12 17° ENE visible
27 May 11.3 03:00:13 10° N 03:04:46 40° WNW 03:04:46 40° WNW visible
28 May 10.8 02:28:16 10° NNE 02:32:43 67° N 02:32:43 67° N visible
29 May 11.7 01:56:47 10° NNE 02:00:40 39° ENE 02:00:40 39° ENE visible
29 May 12.3 03:37:12 10° NNW 03:40:45 18° WNW 03:41:14 18° WNW visible
30 May 12.6 01:25:59 10° NE 01:28:36 19° ENE 01:28:36 19° ENE visible
30 May 11.4 03:04:32 10° N 03:09:10 37° WNW 03:09:10 37° WNW visible
31 May 10.8 02:32:30 10° N 02:37:06 69° NNW 02:37:06 69° NNW visible
01 Jun 11.5 02:00:58 10° NNE 02:05:02 44° ENE 02:05:02 44° ENE visible
01 Jun 12.4 03:41:38 10° NNW 03:44:56 17° WNW 03:45:36 16° WNW visible
02 Jun 12.5 01:30:02 10° NE 01:32:58 22° ENE 01:32:58 22° ENE visible
02 Jun 11.5 03:08:51 10° N 03:13:28 33° WNW 03:13:32 33° WNW visible
